Weather History for Duluth, MN

Change the Weather History Date:

Wednesday, April 9, 2014

  Actual Average Record
Temperature  
Mean Temperature 44 °F 36 °F  
Max Temperature 57 °F 46 °F 80 °F (1887)
Min Temperature 30 °F 27 °F 6 °F (2007)
Degree Days  
Heating Degree Days 21 28  
Month to date heating degree days 283 272  
Since 1 July heating degree days 9163 8349  
Cooling Degree Days 0 0  
Month to date cooling degree days 0 0  
Year to date cooling degree days 0 0  
Moisture  
Dew Point 28 °F    
Average Humidity 58    
Maximum Humidity 77    
Minimum Humidity 38    
Precipitation  
Precipitation T in 0.07 in 1.05 in (1950)
Month to date precipitation 0.80 0.59  
Year to date precipitation 5.56 3.85  
Snow  
Snow 0.00 in 0.30 in 8.00 in (1894)
Month to date snowfall 12.9 2.8  
Since 1 July snowfall 117.6 81.6  
Snow Depth 23.00 in    
Sea Level Pressure  
Sea Level Pressure 29.66 in    
Wind  
Wind Speed 14 mph (SW)    
Max Wind Speed 28 mph    
Max Gust Speed 38 mph    
Visibility 10 miles    
Events Thunderstorm    
T = Trace of Precipitation, MM = Missing Value Source: NWS Daily Summary

Daily Weather History Graph

Daily Weather History Graph

Search for Another Location

Airport:

Trip Planner

Search our weather history database for the weather conditions in past years. The results will help you decide how hot, cold, wet, or windy it might be!

Date:

Astronomy

Apr. 09, 2014 Rise Set
Actual Time 6:32 AM CDT 7:49 PM CDT
Civil Twilight 6:01 AM CDT 8:20 PM CDT
Nautical Twilight 5:23 AM CDT 8:58 PM CDT
Astronomical Twilight 4:43 AM CDT 9:38 PM CDT
Moon 2:19 PM CDT (4/9) 3:41 AM CDT (4/9)
Length of Visible Light 14h 19m
Length of Day
13h 16m
Waxing Gibbous, 72% of the Moon is Illuminated
Apr 9
Waxing Gibbous
Apr 15
Full
Apr 22
Last Quarter
Apr 29
New
May 6
First Quarter

Hourly Weather History & Observations

Time (CDT) Temp. Windchill Dew Point Humidity Pressure Visibility Wind Dir Wind Speed Gust Speed Precip Events Conditions
12:55 AM 33.1 °F - 19.9 °F 59% 29.94 in 10.0 mi Calm Calm - N/A   Clear
1:55 AM 30.0 °F - 19.9 °F 66% 29.94 in 10.0 mi Calm Calm - N/A   Clear
2:55 AM 33.1 °F 26.1 °F 19.0 °F 56% 29.92 in 10.0 mi SW 8.1 mph - N/A   Partly Cloudy
3:55 AM 33.1 °F 26.9 °F 19.9 °F 59% 29.90 in 10.0 mi SW 6.9 mph - N/A   Overcast
4:55 AM 33.1 °F 26.1 °F 19.9 °F 59% 29.88 in 10.0 mi SW 8.1 mph - N/A   Partly Cloudy
5:55 AM 34.0 °F 27.2 °F 19.9 °F 56% 29.86 in 10.0 mi SSW 8.1 mph - N/A   Scattered Clouds
6:55 AM 36.0 °F 28.0 °F 21.9 °F 57% 29.83 in 10.0 mi SSW 11.5 mph - N/A   Mostly Cloudy
7:55 AM 37.9 °F 29.6 °F 24.1 °F 57% 29.83 in 10.0 mi SSW 13.8 mph - N/A   Overcast
8:55 AM 39.0 °F 29.9 °F 25.0 °F 57% 29.78 in 10.0 mi South 17.3 mph - 0.00 in   Overcast
9:55 AM 41.0 °F 32.8 °F 26.1 °F 55% 29.73 in 10.0 mi South 16.1 mph - N/A   Mostly Cloudy
10:55 AM 46.0 °F 38.0 °F 25.0 °F 44% 29.70 in 10.0 mi SSW 21.9 mph 32.2 mph N/A   Mostly Cloudy
11:55 AM 48.0 °F - 26.1 °F 42% 29.65 in 10.0 mi SSW 18.4 mph 34.5 mph N/A   Scattered Clouds
12:55 PM 50.0 °F - 27.0 °F 41% 29.62 in 10.0 mi SW 20.7 mph 28.8 mph N/A   Partly Cloudy
1:55 PM 51.1 °F - 27.0 °F 39% 29.62 in 10.0 mi SW 20.7 mph 28.8 mph N/A   Clear
2:55 PM 52.0 °F - 28.0 °F 40% 29.59 in 10.0 mi SSW 20.7 mph 27.6 mph N/A   Clear
3:55 PM 53.1 °F - 28.9 °F 40% 29.57 in 10.0 mi SSW 19.6 mph - N/A   Clear
4:55 PM 54.0 °F - 28.9 °F 38% 29.54 in 10.0 mi SW 11.5 mph 21.9 mph N/A   Clear
5:55 PM 55.0 °F - 30.9 °F 40% 29.52 in 10.0 mi SW 19.6 mph 26.5 mph N/A   Clear
6:55 PM 54.0 °F - 32.0 °F 43% 29.50 in 10.0 mi SSW 13.8 mph - N/A   Clear
7:55 PM 52.0 °F - 33.1 °F 49% 29.47 in 10.0 mi SSW 11.5 mph - N/A   Partly Cloudy
8:55 PM 53.1 °F - 34.0 °F 48% 29.44 in 10.0 mi SSW 12.7 mph - N/A   Partly Cloudy
9:55 PM 53.1 °F - 36.0 °F 52% 29.41 in 10.0 mi WSW 8.1 mph - N/A   Overcast
9:57 PM 53.1 °F - 36.0 °F 52% 29.40 in 10.0 mi West 9.2 mph - N/A Thunderstorm Thunderstorm
10:33 PM 53.1 °F - 39.0 °F 59% 29.41 in 10.0 mi WNW 8.1 mph 19.6 mph 0.00 in   Mostly Cloudy
10:55 PM 52.0 °F - 42.1 °F 69% 29.44 in 10.0 mi WNW 9.2 mph - 0.00 in   Scattered Clouds
11:55 PM 48.9 °F - 41.0 °F 74% 29.45 in 10.0 mi NW 13.8 mph - N/A   Partly Cloudy